Flag for US Virgin Islands Weather past 2 weeks in Christiansted, US Virgin Islands

Now
79 °F

Clear.


Feels Like: 82 °F
Forecast: 78 / 82 °F
Wind: 3 mph from Southeast

Location: Christiansted / Henry E. Rohlsen Airport - Saint Croix

Current Time: Apr 27, 2015 at 12:35:01 AM

Latest Report: Apr 26, 2015 at 11:53 PM


Visibility: 10 mi

Pressure: 29.96 "Hg

Humidity: 79%

Dew point: 72 °F

Location of ChristianstedLocation

Historic Weather in Christiansted — Graph

°F

Christiansted temperature yesterday

Maximum temperature yesterday: 87 °F (at 12:53 PM)
Minimum temperature yesterday: 79 °F (at 12:53 AM)
Average temperature yesterday: 82 °F

Past Weeks' High & Low Weather Summary

 TemperatureHumidityPressure
High87 °F (Apr 25, 12:53 PM)94% (Apr 18, 12:43 AM)30.09 "Hg (Apr 18, 12:43 AM)
Low72 °F (Apr 25, 12:53 AM)50% (Apr 21, 1:53 PM)29.93 "Hg (Apr 25, 4:53 PM)
Average80 °F75%29.99 "Hg
* Reported Apr 12 7:53 AM — Apr 26 10:53 PM, Christiansted, Weather by CustomWeather, © 2015

Note: Actual official high and low records may vary slightly from our data, if they occured in-between our weather recording intervals... More about our weather records

Advertising

Christiansted weather history for previous 24 hours

 ConditionsComfort  
Time TempWeatherWind HumidityBarometerVisibility
10:53 PM
Sun, Apr 26
79 °FPassing clouds.6 mph82%29.98 "Hg10 mi
9:53 PM80 °FPassing clouds.5 mph79%29.98 "Hg10 mi
8:53 PM80 °FPartly cloudy.5 mph79%29.97 "Hg10 mi
7:53 PM80 °FPassing clouds.5 mph79%29.97 "Hg10 mi
6:53 PM81 °FPassing clouds.6 mph74%29.95 "Hg10 mi
5:53 PM82 °FScattered clouds.9 mph74%29.94 "Hg10 mi
5:35 PM83 °FScattered clouds.10 mph72%29.94 "Hg10 mi
4:53 PM84 °FPartly sunny.12 mph70%29.93 "Hg10 mi
3:53 PM85 °FSunny.13 mph68%29.93 "Hg10 mi
2:53 PM86 °FSunny.14 mph65%29.94 "Hg10 mi
2:08 PM87 °FPassing clouds.13 mph65%29.96 "Hg10 mi
1:53 PM87 °FPassing clouds.10 mph63%29.96 "Hg10 mi
12:53 PM87 °FPassing clouds.12 mph65%29.98 "Hg10 mi
11:53 AM85 °FScattered clouds.12 mph70%30.00 "Hg10 mi
10:53 AM85 °FScattered clouds.10 mph70%30.01 "Hg10 mi
9:53 AM85 °FPassing clouds.10 mph68%30.01 "Hg10 mi
8:53 AM84 °FPassing clouds.13 mph70%29.99 "Hg10 mi
7:53 AM82 °FScattered clouds.10 mph74%29.98 "Hg10 mi
6:53 AM80 °FPassing clouds.9 mph76%29.96 "Hg10 mi
5:53 AM79 °FPassing clouds.7 mph82%29.96 "Hg10 mi
4:53 AM79 °FPassing clouds.7 mph82%29.94 "Hg10 mi
3:53 AM79 °FPassing clouds.6 mph82%29.94 "Hg10 mi
2:53 AM79 °FPassing clouds.6 mph82%29.93 "Hg10 mi
1:53 AM79 °FPassing clouds.6 mph79%29.94 "Hg10 mi
12:53 AM79 °FPassing clouds.6 mph82%29.96 "Hg10 mi
Weather by CustomWeather, © 2015

See weather overviewHow to use our weather pages